Regional Weather Roundup
Issued by NWS

Home | Current Version | Previous Version | Text Only | Print | Product List | Glossary Off
Versions: 1 2 3 4 5 6 7 8 9 10 11 12 13 14 15 16 17 18 19 20 21 22 23 24 25 26 27 28 29 30 31 32 33 34 35 36 37 38 39 40 41 42 43 44 45 46 47 48 49 50

000
ASUS43 KFSD 300510
RWRSD

WEATHER ROUNDUP FOR SOUTH DAKOTA
NATIONAL WEATHER SERVICE SIOUX FALLS SD
1200 AM CDT THU JUL 30 2015

NOTE: "FAIR" INDICATES FEW OR NO CLOUDS BELOW 12,000 FEET WITH NO
SIGNIFICANT WEATHER AND/OR OBSTRUCTIONS TO VISIBILITY.


SDZ001>005-009-010-012>017-300600-
NORTHWEST AND NORTH CENTRAL SOUTH DAKOTA

CITY           SKY/WX    TMP DP  RH WIND       PRES   REMARKS
BUFFALO          N/A     66  39  37 N6        30.12R
FAITH            N/A     73  39  29 CALM      30.16R
MOBRIDGE       CLEAR     60  56  86 N6        30.09R
$$

SDZ012>016-024>037-041>051-057-063-072>074-300600-
SOUTHWEST AND SOUTH CENTRAL SOUTH DAKOTA

CITY           SKY/WX    TMP DP  RH WIND       PRES   REMARKS
RAPID CTY ARPT CLEAR     59  48  67 VRB6      30.20S
PIERRE         CLEAR     71  46  40 W6        30.10R
CUSTER         CLEAR     54  39  57 NW6       30.34R
ELLSWORTH AFB  CLEAR     64  46  51 NE2       30.20R
PHILIP         CLEAR     60  55  83 NW7       30.14S
PINE RIDGE     CLEAR     58  51  78 NE5       30.22S
SPEARFISH      FAIR      57  45  62 SW3       30.26S
WINNER         FAIR      71  50  47 S6        30.15S
$$

SDZ004>011-016>023-039-040-300600-
NORTHEAST SOUTH DAKOTA

CITY           SKY/WX    TMP DP  RH WIND       PRES   REMARKS
ABERDEEN       CLEAR     58  54  86 SW7       30.06S
WATERTOWN      CLEAR     61  54  77 W8        30.09R
BROOKINGS      CLEAR     64  54  68 CALM      30.12R
SISSETON         N/A     65  54  67 W8        30.02S
$$

SDZ017-020-022-023-036>040-048>070-300600-
SOUTHEAST SOUTH DAKOTA

CITY           SKY/WX    TMP DP  RH WIND       PRES   REMARKS
SIOUX FALLS    CLEAR     63  59  87 CALM      30.11R
HURON          CLEAR     65  59  81 SW7       30.09R
CHAMBERLAIN    PTCLDY    63  55  73 CALM      30.13R
MITCHELL       CLEAR     65  57  75 S7        30.11R
YANKTON        CLEAR     72  54  53 SW6       30.10S
$$

ABBREVIATIONS USED IN REMARKS
   TC - TEMPERATURE IN CELSIUS
  WCI - WIND CHILL INDEX
   HX - HEAT INDEX
  VSB - VISIBILITY



USA.gov is the U.S. government's official web portal to all federal, state and local government web resources and services.